QPF
0.00 0.00 0.00 0.00 0.00 0.00 0.00 0.00 0.00 0.00 0.00 0.00 0.00 0.00 0.00 0.00 0.00 0.00 0.00 0.00 0.00 0.00 0.00 0.00 0.00 0.00 0.00 0.00 0.00 0.00 0.00 0.00 0.00 0.00 0.00 0.00 0.00 0.00 0.00 0.00 0.00 0.00 0.00
0.00 0.00 0.00 0.00 0.00 0.00 0.00 0.00 0.00 0.00 0.00 0.00 0.00 0.00 0.00 0.00 0.00 0.00 0.00 0.00 0.00 0.00 0.00 0.00 0.00 0.00 0.00 0.00 0.00 0.00 0.00 0.00 0.00 0.00 0.00 0.00 0.00 0.00 0.00 0.00 0.00 0.00 0.00
0.00 0.00 0.00 0.00 0.00 0.00 0.00 0.00 0.00 0.00 0.00 0.00 0.00 0.00 0.00 0.00 0.00 0.00 0.00 0.00 0.00 0.00 0.00 0.00 0.00 0.00 0.00 0.00 0.00 0.00 0.00 0.00 0.00 0.00 0.00 0.00 0.00 0.00 0.00 0.00 0.00 0.00 0.00
0.00 0.00 0.00 0.00 0.00 0.00 0.00 0.00 0.00 0.00 0.00 0.00 0.00 0.00 0.00 0.00 0.00 0.00 0.00 0.00 0.00 0.00 0.00 0.00 0.00 0.00 0.00 0.00 0.00 0.00 0.00 0.00 0.00 0.00 0.00 0.00 0.00 0.00 0.00 0.00 0.00 0.00 0.00
0.00 0.00 0.00 0.00 0.00 0.00 0.00 0.00 0.00 0.00 0.00 0.00 0.00 0.00 0.00 0.00 0.00 0.00 0.00 0.00 0.00 0.00 0.00 0.00 0.00 0.00 0.00 0.00 0.00 0.00 0.00 0.00 0.00 0.00 0.00 0.00 0.00 0.00 0.00 0.00 0.00 0.00 0.00
0.00 0.00 0.00 0.00 0.00 0.00 0.00 0.00 0.00 0.00 0.00 0.00 0.00 0.00 0.00 0.00 0.00 0.00 0.00 0.00 0.00 0.00 0.00 0.00 0.00 0.00 0.00 0.00 0.00 0.00 0.00 0.00 0.00 0.00 0.00 0.00 0.00 0.00 0.00 0.00 0.00 0.00 0.00
0.00 0.00 0.00 0.00 0.00 0.00 0.00 0.00 0.00 0.00 0.00 0.00 0.00 0.00 0.00 0.00 0.00 0.00 0.00 0.00 0.00 0.00 0.00 0.00 0.00 0.00 0.00 0.00 0.00 0.00 0.00 0.00 0.00 0.00 0.00 0.00 0.00 0.00 0.00 0.00 0.00 0.00 0.00
0.00 0.00 0.00 0.00 0.00 0.00 0.00 0.00 0.00 0.00 0.00 0.00 0.00 0.00 0.00 0.00 0.00 0.00 0.00 0.00 0.00 0.00 0.00 0.00 0.00 0.00 0.00 0.00 0.00 0.00 0.00 0.00 0.00 0.00 0.00 0.00 0.00 0.00 0.00 0.00 0.00 0.00 0.00
0.00 0.00 0.00 0.00 0.00 0.00 0.00 0.00 0.00 0.00 0.00 0.00 0.00 0.00 0.00 0.00 0.00 0.00 0.00 0.00 0.00 0.00 0.00 0.00 0.00 0.00 0.00 0.00 0.00 0.00 0.00 0.00 0.00 0.00 0.00 0.00 0.00 0.00 0.00 0.00 0.00 0.00 0.00
0.00 0.00 0.00 0.00 0.00 0.00 0.00 0.00 0.00 0.00 0.00 0.00 0.00 0.00 0.00 0.00 0.00 0.00 0.00 0.00 0.00 0.00 0.00 0.00 0.00 0.00 0.00 0.00 0.00 0.00 0.00 0.00 0.00 0.00 0.00 0.00 0.00 0.00 0.00 0.00 0.00 0.00 0.00
0.00 0.00 0.00 0.00 0.00 0.00 0.00 0.00 0.00 0.00 0.00 0.00 0.00 0.00 0.00 0.00 0.00 0.00 0.00 0.00 0.00 0.00 0.00 0.00 0.00 0.00 0.00 0.00 0.00 0.00 0.00 0.00 0.00 0.00 0.00 0.00 0.00 0.00 0.00 0.00 0.00 0.00 0.00
0.00 0.00 0.00 0.00 0.00 0.00 0.00 0.00 0.00 0.00 0.00 0.00 0.00 0.00 0.00 0.00 0.00 0.00 0.00 0.00 0.00 0.00 0.00 0.00 0.00 0.00 0.00 0.00 0.00 0.00 0.00 0.00 0.00 0.00 0.00 0.00 0.00 0.00 0.00 0.00 0.00 0.00 0.00
0.00 0.00 0.00 0.00 0.00 0.00 0.00 0.00 0.00 0.00 0.00 0.00 0.00 0.00 0.00 0.00 0.00 0.00 0.00 0.00 0.00 0.00 0.00 0.00 0.00 0.00 0.00 0.00 0.00 0.00 0.00 0.00 0.00 0.00 0.00 0.00 0.00 0.00 0.00 0.00 0.00 0.00 0.00
0.00 0.00 0.00 0.00 0.00 0.00 0.00 0.00 0.00 0.00 0.00 0.00 0.00 0.00 0.00 0.00 0.00 0.00 0.00 0.00 0.00 0.00 0.00 0.00 0.00 0.00 0.00 0.00 0.00 0.00 0.00 0.00 0.00 0.00 0.00 0.00 0.00 0.00 0.00 0.00 0.00 0.00 0.00
0.00 0.00 0.00 0.00 0.00 0.00 0.00 0.00 0.00 0.00 0.00 0.00 0.00 0.00 0.00 0.00 0.00 0.00 0.00 0.00 0.00 0.00 0.00 0.00 0.00 0.00 0.00 0.00 0.00 0.00 0.00 0.00 0.00 0.00 0.00 0.00 0.00 0.00 0.00 0.00 0.00 0.00 0.00
0.00 0.00 0.00 0.00 0.00 0.00 0.00 0.00 0.00 0.00 0.00 0.00 0.00 0.00 0.00 0.00 0.00 0.00 0.00 0.00 0.00 0.00 0.00 0.00 0.00 0.00 0.00 0.00 0.00 0.00 0.00 0.00 0.00 0.00 0.00 0.00 0.00 0.00 0.00 0.00 0.00 0.00 0.00
0.00 0.00 0.00 0.00 0.00 0.00 0.00 0.00 0.00 0.00 0.00 0.00 0.00 0.00 0.00 0.00 0.00 0.00 0.00 0.00 0.00 0.00 0.00 0.00 0.00 0.00 0.00 0.00 0.00 0.00 0.00 0.00 0.00 0.00 0.00 0.00 0.00 0.00 0.00 0.00 0.00 0.00 0.00
0.00 0.00 0.00 0.00 0.00 0.00 0.00 0.00 0.00 0.00 0.00 0.00 0.00 0.00 0.00 0.00 0.00 0.00 0.00 0.00 0.00 0.00 0.00 0.00 0.00 0.00 0.00 0.00 0.00 0.00 0.00 0.00 0.00 0.00 0.00 0.00 0.00 0.00 0.00 0.00 0.00 0.00 0.00
0.00 0.00 0.00 0.00 0.00 0.00 0.00 0.00 0.00 0.00 0.00 0.00 0.00 0.00 0.00 0.00 0.00 0.00 0.00 0.00 0.00 0.00 0.00 0.00 0.00 0.00 0.00 0.00 0.00 0.00 0.00 0.00 0.00 0.00 0.00 0.00 0.00 0.00 0.00 0.00 0.00 0.00 0.00
0.00 0.00 0.00 0.00 0.00 0.00 0.00 0.00 0.00 0.00 0.00 0.00 0.00 0.00 0.00 0.00 0.00 0.00 0.00 0.00 0.00 0.00 0.00 0.00 0.00 0.00 0.00 0.00 0.00 0.00 0.00 0.00 0.00 0.00 0.00 0.00 0.00 0.00 0.00 0.00 0.00 0.00 0.00
0.00 0.00 0.00 0.00 0.00 0.00 0.00 0.00 0.00 0.00 0.00 0.00 0.00 0.00 0.00 0.00 0.00 0.00 0.00 0.00 0.00 0.00 0.00 0.00 0.00 0.00 0.00 0.00 0.00 0.00 0.00 0.00 0.00 0.00 0.00 0.00 0.00 0.00 0.00 0.00 0.00 0.00 0.00
0.00 0.00 0.00 0.00 0.00 0.00 0.00 0.00 0.00 0.00 0.00 0.00 0.00 0.00 0.00 0.00 0.00 0.00 0.00 0.00 0.00 0.00 0.00 0.00 0.00 0.00 0.00 0.00 0.00 0.00 0.00 0.00 0.00 0.00 0.00 0.00 0.00 0.00 0.00 0.00 0.00 0.00 0.00
0.00 0.00 0.00 0.00 0.00 0.00 0.00 0.00 0.00 0.00 0.00 0.00 0.00 0.00 0.00 0.00 0.00 0.00 0.00 0.00 0.00 0.00 0.00 0.00 0.00 0.00 0.00 0.00 0.00 0.00 0.00 0.00 0.00 0.00 0.00 0.00 0.00 0.00 0.00 0.00 0.00 0.00 0.00
0.00 0.00 0.00 0.00 0.00 0.00 0.00 0.00 0.00 0.00 0.00 0.00 0.00 0.00 0.00 0.00 0.00 0.00 0.00 0.00 0.00 0.00 0.00 0.00 0.00 0.00 0.00 0.00 0.00 0.00 0.00 0.00 0.00 0.00 0.00 0.00 0.00 0.00 0.00 0.00 0.00 0.00 0.00
0.00 0.00 0.00 0.00 0.00 0.00 0.00 0.00 0.00 0.00 0.00 0.00 0.00 0.00 0.00 0.00 0.00 0.00 0.00 0.00 0.00 0.00 0.00 0.00 0.00 0.00 0.00 0.00 0.00 0.00 0.00 0.00 0.00 0.00 0.00 0.00 0.00 0.00 0.00 0.00 0.00 0.00 0.00
0.00 0.00 0.00 0.00 0.00 0.00 0.00 0.00 0.00 0.00 0.00 0.00 0.00 0.00 0.00 0.00 0.00 0.00 0.00 0.00 0.00 0.00 0.00 0.00 0.00 0.00 0.00 0.00 0.00 0.00 0.00 0.00 0.00 0.00 0.00 0.00 0.00 0.00 0.00 0.00 0.00 0.00 0.00
MSLP
1024.37 1025.03 1025.68 1026.13 1026.38 1026.65 1026.89 1027.29 1027.73 1027.98 1028.02 1027.87 1027.70 1027.71 1027.79 1027.73 1027.75 1027.52 1027.54 1027.56 1027.44 1027.37 1027.23 1026.98 1026.82 1026.65 1026.27 1026.03 1025.89 1025.59 1025.09 1024.77 1023.59 1021.91 1021.46 1021.08 1020.39 1019.83 1019.14 1018.69 1018.17 1017.71 1017.24
1024.34 1025.04 1025.57 1026.15 1026.51 1026.86 1027.34 1027.55 1028.00 1028.13 1028.06 1027.86 1027.99 1027.99 1028.02 1028.13 1028.20 1028.03 1028.03 1028.09 1027.92 1027.79 1027.70 1027.35 1027.22 1027.00 1026.67 1026.51 1026.20 1025.84 1025.49 1024.98 1024.42 1022.97 1021.81 1021.44 1021.14 1020.56 1019.70 1018.94 1018.34 1018.02 1017.52
1024.42 1025.09 1025.66 1025.95 1026.62 1027.00 1027.58 1027.99 1028.23 1028.19 1027.99 1028.05 1028.12 1028.18 1028.34 1028.68 1028.73 1028.61 1028.55 1028.45 1028.37 1028.24 1028.10 1027.76 1027.58 1027.37 1027.03 1026.79 1026.57 1026.22 1025.83 1025.40 1024.79 1023.90 1022.80 1022.25 1021.73 1021.23 1020.10 1019.49 1018.82 1018.37 1017.78
1024.36 1025.10 1025.36 1025.97 1026.66 1027.15 1027.70 1028.22 1028.52 1028.42 1028.33 1028.57 1028.61 1028.67 1028.91 1029.02 1029.01 1029.00 1028.85 1028.74 1028.71 1028.64 1028.54 1028.29 1028.00 1027.99 1027.79 1027.37 1026.91 1026.65 1026.21 1025.54 1024.92 1024.23 1023.52 1022.77 1022.21 1021.85 1021.14 1020.08 1018.82 1018.55 1018.19
1024.38 1024.89 1025.20 1025.93 1026.65 1027.32 1027.68 1028.04 1028.73 1028.62 1028.59 1028.77 1028.92 1029.01 1029.28 1029.33 1029.47 1029.63 1029.34 1029.31 1029.26 1029.10 1028.97 1028.79 1028.63 1028.77 1028.68 1028.36 1027.73 1027.40 1026.83 1026.16 1025.54 1024.95 1024.34 1023.75 1023.09 1022.45 1021.77 1021.10 1020.03 1019.16 1018.12
1023.90 1024.45 1025.04 1025.58 1026.42 1027.15 1027.56 1027.91 1028.52 1028.77 1028.86 1029.06 1029.13 1029.35 1029.62 1029.68 1029.97 1030.14 1029.99 1029.90 1029.83 1029.70 1029.52 1029.35 1028.94 1028.95 1028.88 1028.97 1028.72 1028.51 1028.02 1027.40 1026.62 1026.07 1025.44 1024.99 1024.54 1024.04 1023.16 1022.20 1021.35 1020.11 1018.86
1023.39 1024.06 1024.73 1025.21 1025.97 1026.72 1027.14 1027.64 1028.22 1028.54 1028.86 1029.11 1029.23 1029.50 1029.83 1029.97 1030.09 1030.28 1030.42 1030.26 1030.15 1030.10 1030.02 1029.78 1029.44 1029.34 1029.31 1029.17 1029.02 1028.75 1028.60 1028.26 1027.95 1027.14 1026.65 1026.38 1025.84 1025.36 1024.55 1023.26 1022.45 1021.52 1020.85
1022.92 1023.57 1024.18 1024.79 1025.45 1026.17 1026.69 1027.23 1027.92 1028.35 1028.65 1028.86 1029.18 1029.53 1029.71 1029.89 1030.24 1030.27 1030.46 1030.37 1030.31 1030.34 1030.25 1030.18 1029.80 1029.59 1029.26 1029.56 1029.43 1029.09 1028.86 1028.70 1028.32 1027.71 1027.42 1027.25 1026.84 1026.22 1025.62 1024.61 1023.75 1022.50 1021.25
1022.44 1022.92 1023.52 1024.18 1024.86 1025.60 1026.19 1026.85 1027.54 1028.09 1028.53 1028.83 1029.16 1029.58 1029.75 1029.85 1030.11 1030.24 1030.08 1029.90 1030.06 1030.26 1030.30 1030.11 1030.03 1029.72 1029.55 1029.53 1029.48 1029.30 1029.13 1029.07 1028.80 1028.57 1028.23 1027.85 1027.39 1026.80 1026.26 1024.89 1024.16 1023.01 1022.02
1021.77 1022.32 1023.06 1023.73 1024.35 1025.03 1025.71 1026.46 1027.22 1027.73 1028.16 1028.60 1029.11 1029.62 1030.23 1029.86 1030.06 1030.07 1029.91 1029.63 1029.77 1029.83 1029.98 1030.09 1030.25 1030.02 1029.79 1029.66 1029.49 1029.32 1029.24 1029.26 1028.95 1028.55 1028.15 1027.73 1027.38 1026.94 1026.70 1026.04 1025.35 1024.44 1023.77
1021.59 1022.16 1022.84 1023.44 1023.99 1024.62 1025.36 1026.08 1026.75 1027.31 1027.83 1028.34 1028.88 1029.50 1029.73 1029.91 1029.89 1029.98 1030.10 1029.79 1029.83 1030.02 1030.10 1030.16 1030.11 1030.48 1030.11 1030.08 1029.98 1029.83 1029.98 1029.63 1029.05 1028.59 1028.16 1027.87 1027.56 1027.21 1026.84 1026.54 1026.17 1025.59 1024.92
1021.61 1022.17 1022.79 1023.33 1023.89 1024.52 1025.09 1025.75 1026.37 1026.88 1027.41 1028.01 1028.66 1029.19 1029.53 1029.82 1030.26 1030.14 1030.06 1030.26 1030.33 1030.18 1030.38 1030.57 1030.66 1030.80 1030.75 1030.42 1030.23 1030.55 1030.42 1029.81 1029.18 1028.80 1028.38 1028.08 1027.79 1027.48 1027.15 1026.83 1026.47 1026.05 1025.67
1021.61 1022.23 1022.88 1023.44 1023.92 1024.47 1025.04 1025.69 1026.20 1026.72 1027.12 1027.65 1028.22 1028.69 1029.23 1029.79 1030.07 1030.58 1030.46 1030.25 1030.54 1030.52 1030.62 1030.87 1031.09 1031.15 1031.09 1030.93 1030.85 1030.83 1030.55 1029.97 1029.59 1029.15 1028.87 1028.67 1028.46 1028.14 1027.52 1026.91 1026.30 1025.82 1025.33
1021.48 1022.23 1023.03 1023.42 1023.90 1024.42 1024.94 1025.53 1026.00 1026.44 1026.78 1027.19 1027.69 1028.22 1028.82 1029.43 1029.67 1029.93 1030.08 1030.02 1030.44 1030.75 1031.26 1031.30 1031.56 1031.46 1031.79 1031.61 1030.98 1030.71 1030.53 1030.44 1030.16 1029.73 1029.41 1029.09 1028.66 1028.20 1027.71 1027.36 1026.68 1026.04 1025.23
1021.08 1021.91 1022.60 1023.18 1023.64 1024.15 1024.63 1025.26 1025.68 1026.07 1026.31 1026.62 1027.07 1027.60 1028.21 1028.62 1028.92 1029.23 1029.44 1029.68 1029.91 1030.33 1031.10 1031.02 1030.86 1030.81 1030.71 1030.67 1030.59 1030.61 1030.44 1030.28 1030.10 1029.97 1029.67 1029.29 1028.92 1028.54 1028.11 1027.75 1027.23 1026.47 1025.71
1020.64 1021.49 1022.04 1022.63 1023.30 1023.83 1024.39 1025.36 1026.06 1026.27 1026.56 1026.62 1026.90 1027.24 1027.84 1028.15 1028.36 1028.70 1028.94 1029.21 1029.59 1030.31 1030.50 1030.23 1030.22 1030.35 1030.34 1030.31 1030.30 1030.28 1030.35 1030.42 1030.26 1030.07 1029.80 1029.56 1029.24 1028.86 1028.54 1028.06 1027.67 1027.07 1026.38
1020.01 1020.85 1021.62 1022.19 1022.77 1023.39 1024.05 1024.54 1025.12 1025.95 1026.09 1026.24 1026.49 1026.97 1027.21 1027.49 1027.85 1028.04 1028.22 1028.43 1028.61 1029.62 1029.59 1029.54 1029.60 1029.73 1029.81 1029.93 1030.05 1030.15 1030.08 1030.25 1030.72 1030.09 1029.79 1029.57 1029.43 1029.09 1028.71 1028.17 1027.82 1027.41 1026.83
1019.90 1020.49 1020.99 1021.58 1022.24 1022.84 1023.41 1023.96 1024.46 1024.84 1025.21 1025.55 1025.85 1026.08 1026.53 1026.85 1027.24 1027.42 1027.62 1027.81 1028.01 1028.56 1028.69 1028.71 1028.87 1029.09 1029.29 1029.46 1029.61 1029.73 1029.76 1029.86 1029.90 1029.73 1029.50 1029.31 1029.21 1028.93 1028.38 1027.87 1027.55 1027.41 1026.94
1019.53 1020.17 1020.72 1021.20 1021.73 1022.21 1022.82 1023.37 1023.85 1024.25 1024.46 1024.63 1025.20 1025.91 1025.72 1025.90 1026.21 1026.53 1026.85 1026.88 1026.99 1027.27 1027.66 1028.00 1028.20 1028.39 1028.65 1028.92 1029.11 1029.29 1029.43 1029.44 1029.34 1029.27 1029.04 1028.88 1028.69 1028.48 1027.94 1027.52 1027.22 1027.14 1027.05
1019.11 1019.59 1020.23 1020.74 1021.26 1021.79 1022.21 1022.57 1023.01 1023.37 1023.68 1023.92 1024.18 1024.40 1024.92 1025.77 1025.49 1025.42 1025.56 1025.71 1026.06 1026.27 1026.54 1026.96 1027.22 1027.63 1027.94 1028.22 1028.46 1028.64 1028.72 1028.72 1028.64 1028.51 1028.30 1028.12 1027.94 1027.79 1027.45 1027.02 1026.65 1026.27 1025.91
1018.46 1019.05 1019.66 1020.16 1020.52 1020.92 1021.31 1021.67 1022.05 1022.44 1022.70 1022.92 1023.11 1023.46 1023.94 1024.25 1024.31 1024.36 1024.52 1025.00 1025.28 1025.52 1025.86 1026.17 1026.49 1026.84 1027.16 1027.46 1027.70 1027.85 1027.97 1027.91 1027.84 1027.81 1027.70 1027.42 1027.18 1026.89 1026.67 1026.22 1025.95 1025.70 1025.40
1017.97 1018.39 1019.04 1019.49 1019.94 1020.37 1020.63 1020.91 1021.23 1021.51 1021.79 1022.01 1022.18 1022.58 1023.17 1023.62 1023.54 1023.59 1023.75 1024.02 1024.38 1024.76 1025.10 1025.49 1025.79 1026.09 1026.36 1026.61 1026.79 1027.04 1027.23 1027.28 1027.20 1027.14 1027.00 1026.91 1026.71 1026.32 1026.03 1025.70 1025.41 1025.11 1024.79
1017.49 1017.90 1018.39 1018.84 1019.22 1019.58 1019.95 1020.20 1020.48 1020.74 1020.96 1021.21 1021.47 1021.81 1022.35 1022.60 1022.71 1022.80 1022.96 1023.25 1023.67 1024.16 1024.61 1025.05 1025.32 1025.54 1025.90 1026.30 1026.53 1026.68 1026.70 1026.69 1026.73 1026.92 1026.90 1026.67 1026.33 1025.98 1025.69 1025.26 1024.92 1024.69 1024.42
1016.94 1017.32 1017.74 1018.13 1018.53 1018.85 1019.15 1019.44 1019.72 1020.03 1020.26 1020.55 1020.80 1021.04 1021.30 1021.59 1021.84 1022.04 1022.29 1022.66 1023.11 1023.56 1024.00 1024.47 1024.89 1025.26 1025.60 1026.03 1026.31 1026.60 1026.85 1027.11 1027.24 1027.19 1027.22 1026.84 1026.38 1025.95 1025.58 1025.23 1024.89 1024.52 1024.23
1016.52 1016.88 1017.23 1017.52 1017.86 1018.21 1018.53 1018.85 1019.14 1019.41 1019.64 1019.86 1020.05 1020.30 1020.51 1020.81 1021.08 1021.33 1021.68 1022.05 1022.49 1023.01 1023.71 1024.42 1024.92 1025.47 1026.06 1026.51 1026.84 1027.09 1027.50 1027.64 1027.58 1027.68 1027.23 1026.91 1026.42 1026.19 1025.78 1025.31 1024.92 1024.51 1024.18
1016.21 1016.48 1016.78 1017.09 1017.38 1017.70 1018.03 1018.31 1018.54 1018.78 1018.98 1019.18 1019.45 1019.67 1019.89 1020.15 1020.43 1020.79 1021.24 1021.72 1022.31 1023.08 1023.99 1024.81 1025.49 1025.98 1026.32 1026.52 1026.96 1027.29 1027.54 1027.62 1027.47 1027.51 1027.26 1026.69 1026.29 1025.90 1025.55 1025.18 1024.87 1024.51 1024.04
Thickness
5431 5423 5415 5410 5406 5403 5398 5393 5388 5384 5380 5377 5375 5371 5366 5362 5356 5352 5348 5344 5342 5339 5338 5338 5337 5336 5337 5337 5336 5336 5338 5338 5346 5360 5362 5364 5370 5376 5384 5390 5396 5403 5413
5422 5415 5409 5402 5398 5393 5387 5383 5379 5375 5373 5372 5368 5366 5363 5357 5352 5348 5344 5339 5337 5335 5333 5334 5332 5331 5332 5330 5330 5331 5331 5332 5334 5343 5352 5353 5354 5357 5364 5368 5375 5382 5391
5415 5407 5401 5397 5389 5384 5377 5373 5370 5368 5368 5366 5364 5361 5357 5351 5347 5345 5341 5339 5336 5334 5332 5331 5330 5328 5328 5327 5326 5326 5327 5328 5330 5334 5341 5343 5344 5343 5350 5353 5356 5359 5367
5407 5399 5395 5388 5380 5375 5369 5364 5361 5360 5360 5359 5358 5355 5350 5347 5344 5341 5339 5337 5334 5331 5328 5327 5327 5324 5323 5324 5325 5324 5325 5327 5329 5332 5334 5336 5337 5336 5337 5340 5347 5347 5349
5397 5392 5388 5380 5372 5366 5361 5357 5352 5353 5353 5353 5352 5350 5346 5343 5340 5336 5335 5332 5330 5329 5326 5324 5321 5318 5316 5316 5318 5318 5319 5322 5324 5326 5326 5326 5326 5328 5329 5329 5334 5337 5341
5392 5387 5381 5374 5366 5359 5354 5351 5347 5345 5346 5347 5346 5343 5340 5338 5334 5331 5329 5327 5324 5322 5320 5318 5318 5315 5313 5310 5308 5307 5307 5309 5313 5314 5315 5313 5313 5312 5315 5319 5320 5324 5331
5388 5381 5374 5369 5362 5354 5350 5346 5342 5341 5341 5341 5340 5338 5334 5332 5329 5326 5323 5321 5318 5315 5313 5312 5311 5309 5306 5304 5302 5301 5299 5299 5299 5301 5302 5300 5301 5299 5300 5306 5309 5312 5312
5383 5377 5370 5365 5359 5352 5347 5342 5337 5336 5337 5338 5336 5333 5331 5327 5323 5321 5318 5316 5313 5310 5307 5305 5304 5302 5301 5297 5294 5294 5292 5291 5291 5292 5291 5289 5289 5289 5290 5293 5295 5302 5309
5380 5374 5369 5363 5357 5350 5345 5340 5336 5334 5333 5333 5331 5327 5325 5322 5319 5317 5315 5314 5311 5306 5302 5300 5298 5297 5294 5292 5289 5287 5286 5284 5282 5281 5280 5279 5279 5279 5279 5285 5286 5292 5295
5378 5373 5367 5361 5356 5350 5345 5340 5335 5333 5331 5329 5326 5322 5317 5317 5314 5313 5312 5311 5308 5305 5299 5295 5291 5288 5286 5284 5282 5281 5278 5273 5272 5271 5271 5271 5271 5270 5269 5270 5272 5275 5277
5373 5368 5363 5359 5354 5349 5343 5339 5335 5332 5329 5327 5323 5317 5314 5312 5310 5308 5305 5304 5301 5297 5292 5288 5284 5280 5278 5275 5272 5270 5266 5264 5264 5263 5262 5260 5258 5258 5258 5257 5256 5258 5260
5366 5362 5358 5354 5350 5345 5342 5337 5333 5331 5327 5323 5318 5313 5310 5306 5302 5300 5298 5294 5291 5288 5284 5279 5275 5271 5268 5266 5263 5258 5255 5254 5253 5252 5251 5248 5246 5244 5243 5243 5243 5243 5243
5360 5356 5351 5347 5345 5341 5338 5333 5330 5327 5324 5320 5315 5312 5306 5300 5296 5292 5289 5287 5282 5279 5275 5270 5265 5261 5258 5255 5251 5247 5244 5243 5241 5240 5237 5234 5231 5230 5230 5230 5231 5231 5232
5356 5350 5344 5342 5339 5336 5333 5330 5327 5323 5320 5317 5313 5308 5302 5295 5291 5286 5283 5280 5275 5269 5264 5259 5255 5251 5246 5242 5240 5237 5234 5230 5227 5225 5223 5220 5219 5218 5217 5216 5216 5216 5217
5355 5348 5343 5339 5335 5332 5329 5326 5323 5320 5317 5314 5310 5305 5298 5293 5289 5283 5278 5273 5268 5262 5255 5250 5247 5243 5239 5235 5231 5225 5221 5218 5215 5211 5208 5206 5204 5203 5201 5199 5199 5200 5203
5353 5346 5341 5337 5332 5328 5325 5319 5312 5311 5308 5306 5302 5298 5292 5288 5283 5277 5272 5267 5260 5252 5247 5245 5241 5234 5229 5225 5220 5215 5209 5204 5201 5198 5194 5191 5188 5186 5183 5182 5180 5180 5181
5350 5344 5338 5333 5329 5324 5320 5318 5314 5304 5302 5299 5295 5291 5286 5282 5276 5271 5266 5261 5255 5245 5242 5237 5232 5226 5220 5214 5208 5202 5199 5193 5185 5183 5180 5176 5172 5170 5168 5166 5164 5161 5160
5343 5338 5335 5330 5325 5320 5316 5312 5308 5305 5300 5295 5290 5286 5280 5275 5269 5263 5257 5252 5247 5241 5235 5230 5224 5217 5210 5204 5197 5191 5186 5181 5175 5171 5167 5163 5157 5154 5152 5151 5148 5143 5142
5338 5333 5329 5325 5321 5317 5312 5307 5302 5298 5295 5292 5285 5277 5274 5270 5264 5257 5251 5248 5243 5237 5229 5221 5215 5208 5200 5193 5186 5179 5172 5167 5162 5157 5153 5148 5144 5139 5137 5135 5131 5123 5116
5333 5329 5324 5320 5315 5311 5306 5303 5298 5293 5290 5286 5282 5277 5270 5259 5257 5253 5249 5244 5237 5231 5224 5215 5208 5199 5191 5183 5176 5168 5161 5155 5150 5145 5140 5135 5130 5125 5121 5118 5115 5112 5109
5330 5324 5319 5315 5311 5307 5303 5299 5295 5290 5286 5282 5278 5271 5264 5259 5253 5248 5244 5235 5228 5222 5213 5206 5198 5190 5181 5173 5165 5158 5150 5144 5138 5132 5126 5121 5116 5112 5107 5104 5100 5096 5093
5325 5320 5314 5310 5306 5301 5298 5295 5290 5286 5281 5277 5272 5265 5255 5249 5246 5241 5236 5229 5220 5212 5204 5196 5188 5179 5171 5163 5155 5147 5139 5131 5124 5118 5112 5106 5101 5097 5093 5089 5085 5081 5077
5319 5314 5309 5305 5301 5297 5292 5289 5284 5279 5275 5270 5264 5257 5249 5243 5239 5234 5227 5220 5211 5203 5193 5184 5175 5167 5158 5149 5141 5132 5125 5118 5110 5102 5097 5092 5088 5083 5079 5075 5070 5064 5058
5313 5308 5303 5299 5294 5291 5286 5281 5277 5271 5267 5261 5255 5250 5244 5237 5231 5225 5218 5210 5201 5191 5183 5173 5163 5153 5143 5134 5125 5116 5109 5101 5093 5086 5079 5075 5071 5066 5061 5056 5049 5044 5039
5303 5299 5295 5291 5287 5282 5277 5273 5268 5262 5258 5252 5247 5241 5236 5229 5223 5216 5208 5199 5190 5180 5169 5158 5147 5137 5126 5116 5107 5099 5092 5085 5078 5070 5064 5058 5053 5046 5040 5035 5030 5025 5020
5294 5290 5286 5281 5277 5273 5268 5263 5258 5253 5248 5243 5237 5232 5226 5220 5213 5205 5196 5186 5175 5164 5152 5140 5129 5119 5110 5101 5093 5085 5077 5069 5062 5055 5047 5042 5035 5029 5023 5018 5012 5008 5005